RH
42 20 11 8 12 9 8 9 9 11 12 14 18 23 24 19 28 49 43 45 41 35 54 67 94 93 92 91 91 91 90 88 86 88 88 86 85 85 86 85 85 82 78 76 74 74 75 77 77
12 10 9 9 12 8 7 8 10 10 10 15 17 23 21 28 28 43 43 52 42 42 56 56 94 92 92 92 92 90 88 87 87 86 85 85 85 82 82 80 84 80 72 71 73 73 74 80 80
18 10 12 9 8 8 9 8 8 9 9 13 16 24 25 33 35 39 46 49 47 52 50 63 91 92 91 92 92 90 90 90 89 88 84 83 82 81 80 80 81 78 77 76 78 77 78 76 74
10 10 8 11 8 9 9 8 11 11 11 9 12 23 30 37 35 39 44 49 50 49 44 79 90 88 90 91 91 89 90 90 86 85 84 83 83 82 81 80 82 79 77 75 76 72 68 68 71
12 10 12 10 9 9 8 9 12 14 15 15 17 24 32 39 39 42 45 48 46 47 48 58 89 89 88 88 88 88 88 87 88 88 89 87 85 84 84 81 78 75 71 68 64 63 64 64 70
11 10 12 10 9 9 9 9 12 16 20 23 24 22 34 41 45 46 47 54 50 46 55 56 83 88 90 89 88 89 88 87 87 90 90 87 86 85 82 76 69 64 63 63 64 66 69 70 82
14 12 12 10 10 10 10 9 10 13 16 20 21 19 37 46 45 47 48 57 59 53 64 70 65 71 91 90 91 92 89 91 92 91 90 89 86 81 74 66 64 64 65 66 70 80 76 79 87
10 10 11 10 10 10 9 9 9 8 15 14 14 19 33 37 47 48 48 57 62 63 56 59 58 60 64 67 93 94 94 93 93 91 91 87 80 73 70 71 66 66 67 68 76 84 84 86 84
8 11 10 10 10 9 8 9 8 9 10 13 15 14 27 38 46 52 61 60 61 57 53 63 57 57 61 61 73 92 94 92 92 88 87 80 57 56 55 66 72 70 70 70 79 85 85 85 81
10 11 10 9 8 10 9 9 8 9 8 12 15 18 26 39 46 54 59 66 74 71 58 55 59 54 54 51 70 76 76 72 72 71 72 59 55 50 42 62 74 70 72 74 78 83 84 73 45
11 12 10 10 9 9 9 10 8 9 10 9 9 9 26 30 38 47 52 51 67 72 60 56 62 68 69 77 79 84 81 76 78 74 67 63 54 50 45 51 48 51 62 53 62 59 44 36 33
14 11 11 10 10 11 12 10 11 9 9 8 8 10 12 28 32 31 38 46 54 64 60 55 62 70 76 72 79 84 90 89 78 74 74 69 66 56 50 47 43 44 40 40 40 42 50 38 35
15 12 11 12 12 12 12 12 12 11 10 10 11 12 15 14 23 26 26 36 48 63 61 61 57 68 70 72 70 76 80 83 70 65 66 66 67 60 51 47 42 37 33 34 36 33 40 41 41
13 14 13 12 12 12 14 12 12 10 13 13 14 14 13 14 17 21 29 34 43 50 58 66 66 71 71 72 75 73 73 73 76 69 62 69 66 56 51 56 52 38 33 33 32 35 38 39 40
16 17 13 12 11 13 13 14 12 10 14 12 12 15 16 17 19 23 25 35 39 39 44 58 69 75 77 72 71 70 68 75 78 73 73 73 76 70 56 51 58 44 36 37 35 38 39 38 38
17 16 17 12 13 12 13 15 10 10 11 12 10 11 13 15 17 19 24 27 35 36 38 48 59 69 77 74 71 66 64 73 74 76 74 75 71 59 58 62 56 45 39 37 35 38 39 41 40
17 17 15 12 12 13 14 15 11 10 12 12 13 11 11 12 13 17 20 23 26 30 37 43 66 70 74 78 76 76 74 67 61 69 70 69 59 57 56 57 56 45 40 40 37 38 44 43 43
18 16 14 13 13 16 16 16 12 11 11 12 12 12 13 12 13 16 18 18 21 27 35 43 50 70 74 75 76 70 65 59 57 64 60 54 53 54 57 56 48 47 42 39 38 45 42 43 43
16 17 15 12 10 15 17 15 13 11 11 12 12 11 11 14 15 20 25 24 28 31 35 46 62 72 77 77 77 74 65 61 56 56 51 50 51 54 57 52 47 52 45 47 52 49 56 50 49
18 18 17 13 12 16 16 14 12 10 10 10 11 12 15 16 19 25 29 32 36 36 38 43 63 70 71 70 63 67 64 62 53 53 54 47 52 53 52 57 48 57 45 53 55 56 53 51 54
17 18 19 19 15 13 14 13 11 11 11 12 14 16 20 22 25 28 32 39 42 46 47 48 54 66 74 72 72 76 78 78 67 55 59 54 55 57 57 59 55 53 48 50 59 61 60 56 55
22 14 17 16 17 20 13 19 13 11 11 13 20 23 26 27 28 31 34 39 44 52 55 56 65 68 71 76 81 83 81 81 83 81 73 66 64 65 68 63 64 69 56 59 62 58 61 60 62
18 14 16 16 18 20 17 17 14 10 11 11 22 27 31 34 35 36 38 40 41 48 56 59 62 64 71 76 83 91 95 94 92 94 92 90 88 80 75 81 82 74 72 68 70 67 67 60 60
14 16 17 17 18 25 17 15 13 11 11 14 24 27 31 34 38 38 42 42 40 47 55 56 60 64 76 82 85 88 92 94 95 95 95 96 94 94 92 88 91 90 86 77 75 76 72 69 65
16 22 29 29 28 26 14 16 15 11 13 14 22 27 28 27 32 34 34 33 38 43 48 54 58 65 72 77 79 81 81 80 81 86 89 93 95 94 95 94 94 93 80 76 76 76 78 78 71
19 20 30 39 34 25 16 21 15 14 18 21 21 26 25 25 26 26 26 29 32 39 44 49 53 55 60 65 68 74 76 81 79 80 78 87 87 87 88 90 89 83 74 75 74 77 81 79 78
21 24 19 28 25 32 22 17 13 20 22 26 25 27 26 24 23 22 20 20 21 23 37 47 47 44 46 57 63 67 76 77 79 74 82 89 89 91 92 92 93 87 86 82 84 86 77 72 74
18 16 28 26 44 41 24 21 19 24 24 28 33 31 28 24 21 20 19 20 21 23 26 40 45 46 46 56 55 56 65 76 77 88 95 97 96 95 96 96 93 90 88 86 81 74 71 72 69
21 22 23 23 28 39 40 31 24 26 26 26 26 26 23 21 20 20 21 21 22 24 26 32 40 41 45 49 56 74 90 80 81 91 92 96 95 95 94 92 90 87 84 81 80 71 64 61 59
19 22 22 35 34 34 40 56 22 24 23 24 24 21 21 19 20 19 20 23 26 30 30 32 34 39 45 51 56 68 97 95 92 93 95 97 97 95 89 80 68 67 65 67 65 59 51 54 54
Wind_Speed
9 12 10 7 8 8 14 6 8 3 6 6 5 8 12 8 13 7 5 7 0 12 18 14 11 12 12 12 12 13 13 13 12 14 13 11 11 10 8 8 7 9 10 10 7 7 7 6 4
11 4 7 6 9 12 7 8 7 8 7 2 1 3 1 14 11 9 6 5 7 11 15 15 12 13 13 12 12 12 13 13 13 12 13 11 10 10 11 9 8 8 8 6 5 5 4 4 3
13 6 8 6 7 8 11 4 6 4 1 3 1 4 5 6 8 5 5 10 15 12 13 16 13 14 13 12 12 11 12 10 11 12 11 13 12 11 9 6 7 6 6 5 5 5 4 4 3
6 7 6 10 5 9 8 6 4 2 8 2 6 5 5 4 2 5 10 13 15 13 14 18 13 15 16 16 16 15 13 13 9 9 9 12 11 11 9 6 4 4 5 5 5 4 4 3 3
9 5 8 12 4 3 1 7 6 4 4 6 5 9 6 5 9 9 11 12 12 15 15 15 9 11 14 15 15 16 16 13 12 11 13 13 12 11 9 6 5 4 5 5 5 4 4 3 3
9 4 10 6 7 3 4 2 2 2 3 6 5 1 10 9 8 8 11 12 10 11 13 14 10 8 11 13 13 11 10 10 10 11 13 14 11 10 10 7 6 5 6 8 7 5 5 6 6
12 6 12 5 1 6 3 2 2 2 4 10 5 11 10 8 9 9 12 11 7 6 8 11 14 13 10 11 11 11 12 13 12 12 14 12 10 9 10 9 8 8 9 9 8 8 8 9 8
9 6 10 4 2 1 7 4 2 8 11 5 4 5 10 14 12 10 10 12 9 9 11 14 13 14 14 14 11 13 14 14 14 14 14 11 10 10 10 11 9 10 11 11 10 10 10 10 7
10 11 11 2 5 4 5 6 8 3 10 5 2 6 9 15 14 11 10 10 11 12 11 11 12 12 12 12 13 15 16 15 14 13 14 12 9 11 13 9 10 11 10 9 12 12 11 10 6
10 11 7 9 3 4 5 8 7 6 13 11 13 10 8 14 13 12 12 12 11 11 13 12 12 13 15 11 15 14 13 12 10 8 10 8 8 7 8 10 9 10 10 10 8 11 13 13 8
10 13 9 6 5 7 9 9 12 9 12 9 7 6 13 13 11 12 12 13 13 13 12 13 12 12 9 8 7 4 5 6 6 9 8 5 6 5 6 6 6 7 9 6 7 7 8 9 7
10 13 9 11 4 8 11 12 14 15 14 10 12 9 4 12 11 14 15 13 13 15 15 13 14 10 9 8 8 8 5 4 5 6 8 6 4 7 7 6 8 7 7 9 9 7 1 2 1
14 13 8 9 10 13 13 14 15 15 8 9 10 9 11 12 12 12 10 14 15 15 16 18 13 11 10 10 8 9 8 6 8 9 9 7 6 8 8 7 7 7 8 7 8 6 7 8 7
10 9 14 14 15 14 13 15 7 12 2 6 6 11 11 13 12 10 10 11 14 18 17 14 17 15 13 12 11 9 8 8 7 7 9 8 7 8 8 6 6 8 8 9 8 8 9 9 9
10 15 17 18 15 11 7 17 18 9 7 10 4 3 5 7 8 10 9 9 11 13 18 16 12 11 12 14 11 9 8 7 6 7 9 7 5 7 10 8 6 7 8 9 8 8 9 9 8
15 15 14 13 5 7 7 14 8 9 9 10 8 5 4 5 6 7 7 8 12 13 14 17 12 11 12 10 8 7 9 8 8 7 7 10 10 11 10 6 7 7 8 9 9 10 9 9 9
13 11 6 5 9 4 9 13 11 7 10 13 12 11 4 4 5 3 4 7 8 10 12 12 15 12 11 9 7 8 10 10 10 9 10 13 14 13 9 7 6 9 8 9 9 10 10 9 9
12 11 11 12 6 10 10 16 16 16 13 11 10 12 3 3 4 5 4 7 6 8 8 10 10 9 8 7 4 5 6 8 8 7 7 13 11 13 10 8 9 9 9 9 10 11 10 11 10
12 13 14 12 9 11 14 16 16 16 13 13 12 15 6 2 3 7 6 5 4 3 6 9 10 5 5 5 6 6 8 8 9 7 10 12 12 14 12 8 10 10 10 10 10 9 11 10 9
10 13 15 12 5 9 16 19 21 20 17 14 10 8 5 4 5 5 7 8 6 5 1 4 8 7 8 7 7 6 8 7 8 8 8 11 12 12 12 10 10 11 9 10 11 11 9 9 9
12 11 12 15 16 18 22 15 12 6 3 6 4 7 4 3 5 6 8 8 7 7 4 2 3 5 6 3 2 2 3 3 4 7 4 8 9 10 10 8 6 10 10 9 10 10 13 10 11
14 8 10 15 16 14 19 20 16 11 14 13 7 5 3 5 6 7 7 8 8 7 6 4 4 6 5 5 6 7 5 4 2 3 3 5 2 3 6 3 3 6 4 6 8 9 10 9 11
14 13 13 17 18 19 17 15 13 7 12 11 12 9 7 5 4 5 5 5 6 6 5 3 2 4 6 7 8 6 6 5 3 4 6 5 4 4 1 5 3 5 3 4 2 5 8 7 10
14 18 20 20 16 13 17 10 7 4 8 16 12 8 6 7 7 3 3 2 3 3 1 2 5 5 7 9 12 13 13 12 9 9 7 7 7 6 9 7 6 6 5 4 3 3 6 6 6
13 13 10 8 9 14 11 7 11 10 6 5 11 7 5 3 2 4 2 2 3 5 6 6 8 9 11 11 11 12 13 14 14 12 8 7 6 6 7 8 6 6 8 6 3 2 5 6 5
13 11 10 17 13 17 21 14 7 9 9 9 8 8 7 6 5 3 4 6 8 9 10 10 11 12 12 12 12 11 13 8 8 9 8 7 7 7 7 6 7 7 7 6 4 1 4 6 4
9 12 14 20 19 19 12 19 12 13 9 7 9 9 6 4 6 8 11 14 16 15 13 12 14 13 11 11 10 11 10 11 10 12 10 6 3 5 5 6 5 8 7 6 4 2 5 4 5
19 16 10 9 9 14 13 16 11 8 11 10 4 6 7 7 11 15 17 16 15 16 15 8 11 15 13 12 11 10 11 12 9 6 6 8 8 8 9 7 5 6 7 7 6 5 5 6 6
13 15 16 17 16 18 19 12 5 7 7 3 2 3 9 15 19 19 16 15 15 15 12 13 12 14 13 14 12 7 5 1 8 7 7 5 8 12 10 10 10 10 10 10 9 8 8 10 9
17 20 19 15 17 17 15 24 11 10 4 5 8 13 20 18 16 17 16 15 15 13 11 15 12 13 11 12 14 7 7 8 8 9 9 9 9 7 9 12 12 10 10 11 11 11 10 11 8
Wind_Direction
217 224 241 250 241 232 250 126 30 148 178 42 20 341 11 25 13 20 64 76 8 140 130 152 134 132 132 132 126 122 122 128 131 121 122 127 131 136 139 156 127 119 116 113 113 105 107 93 82
253 248 239 283 254 230 132 78 197 52 32 13 195 197 268 72 51 99 147 137 156 114 137 154 145 143 144 137 130 126 132 136 134 131 136 146 129 113 98 91 94 103 99 104 124 119 113 102 81
254 259 267 239 266 317 60 110 359 17 135 224 208 358 14 61 61 68 82 145 123 138 165 134 155 154 144 135 132 132 124 127 138 139 134 120 117 111 98 69 63 87 114 118 114 121 115 96 75
205 199 219 251 240 71 2 22 4 306 118 221 244 154 111 44 75 100 134 151 147 160 165 141 157 152 150 150 150 152 147 139 146 132 126 113 110 108 115 131 128 126 118 122 124 124 115 93 77
235 258 231 230 127 94 357 23 11 12 110 142 211 124 88 111 81 110 132 156 165 164 141 149 152 161 161 157 157 158 152 153 154 154 131 124 127 128 125 132 138 139 137 125 121 113 110 89 89
250 277 249 243 105 144 109 60 293 105 93 102 222 263 91 107 127 128 135 151 160 164 132 146 155 162 151 156 160 151 140 154 147 129 116 119 128 132 131 143 150 148 138 127 120 112 111 115 110
256 255 283 307 72 218 123 333 341 333 242 129 7 254 105 140 130 147 136 151 156 167 137 147 171 169 154 160 152 143 144 128 119 113 109 118 129 131 147 147 147 146 139 132 125 118 123 125 122
293 282 271 209 217 224 122 285 14 269 61 65 317 336 101 133 148 153 148 153 176 176 167 165 178 175 177 171 149 140 131 130 127 124 121 126 131 157 147 143 150 157 149 140 133 125 123 123 122
258 268 256 191 230 117 132 265 165 277 275 173 37 309 75 131 145 159 164 184 175 180 179 176 177 185 181 180 158 143 143 139 136 140 141 146 186 179 161 120 138 142 140 141 138 134 130 123 126
243 256 321 25 353 271 202 227 278 266 242 213 189 181 158 150 162 175 182 188 185 196 188 188 185 199 188 182 165 175 163 166 170 172 177 184 168 175 176 126 138 138 132 130 140 148 156 176 153
251 257 357 292 286 303 297 286 268 255 261 261 265 259 164 174 192 181 201 195 196 191 198 196 189 188 182 153 151 152 163 161 158 163 188 192 183 158 152 151 163 155 160 164 172 177 198 201 166
255 244 280 288 303 266 275 288 284 279 279 297 302 326 262 186 208 215 193 206 190 190 202 208 183 185 176 161 166 160 147 164 167 175 179 167 192 179 189 183 181 181 182 165 178 192 198 153 141
245 260 262 254 261 266 277 272 267 275 295 323 293 263 250 232 211 223 223 181 183 204 201 207 207 187 186 182 188 176 182 176 187 174 187 181 200 187 188 194 191 188 188 180 191 188 172 167 155
323 282 273 262 256 257 261 271 209 262 69 270 280 262 243 232 231 217 207 191 204 192 208 189 197 195 195 198 193 190 199 190 174 186 191 197 216 192 189 185 210 198 194 189 195 174 174 173 158
282 271 267 248 235 248 260 257 244 229 193 272 220 239 268 252 229 230 217 217 206 224 189 190 187 192 198 205 198 200 194 187 190 183 191 187 178 190 197 193 216 209 198 197 199 182 178 166 165
254 258 271 77 161 188 238 287 154 168 261 284 290 243 219 226 239 235 222 217 202 224 215 175 184 194 202 210 194 204 196 192 193 188 178 190 203 203 200 203 211 202 195 198 192 190 181 177 167
203 282 285 316 142 267 222 293 326 321 238 272 278 272 271 291 244 172 238 242 241 220 203 190 176 198 189 214 193 199 185 200 192 191 189 192 203 197 195 212 204 189 199 202 191 193 186 176 170
347 314 308 306 142 194 253 271 282 276 274 265 260 282 293 287 55 35 338 325 259 236 235 182 189 176 179 194 213 220 209 206 206 201 194 197 203 200 196 216 198 180 207 196 195 191 191 178 174
302 285 281 283 297 309 276 276 273 271 266 253 240 246 124 255 83 47 39 23 342 289 248 161 191 184 179 173 181 217 221 217 205 211 207 194 201 199 200 220 188 194 205 196 195 191 192 174 167
277 281 284 296 273 265 293 285 282 262 256 265 260 124 144 184 105 81 63 57 50 34 235 195 179 204 185 181 210 220 230 225 216 196 194 203 202 197 206 215 188 194 210 202 185 200 183 175 164
270 271 295 304 309 282 271 282 260 75 135 98 82 87 136 108 94 81 65 54 54 51 29 56 232 189 160 155 118 70 20 5 231 208 175 194 203 198 212 222 223 197 216 194 188 198 197 172 168
283 354 294 290 295 291 324 293 277 272 212 150 133 146 120 110 90 65 56 55 55 48 46 74 119 165 167 150 163 193 203 194 9 353 52 111 192 162 107 107 52 356 245 192 192 197 206 172 178
285 321 290 289 284 288 274 266 256 186 215 178 149 157 156 123 65 68 63 42 57 55 67 80 173 213 210 199 175 164 150 132 130 114 116 134 152 137 112 121 136 83 351 318 226 211 209 204 187
287 291 276 268 261 266 276 272 267 277 200 134 127 153 147 154 158 132 64 21 45 27 359 206 211 217 215 207 193 188 176 166 164 174 178 183 178 187 173 158 162 136 136 277 286 290 222 245 227
234 281 291 272 247 262 281 265 266 284 154 127 151 160 168 130 145 174 172 260 295 279 255 235 227 222 212 219 221 214 212 201 198 195 198 186 190 197 183 173 161 152 167 198 198 219 273 268 257
291 260 270 293 297 299 315 279 343 74 118 155 168 162 179 184 181 257 273 271 278 275 280 269 261 249 217 214 216 216 215 204 213 205 208 198 198 196 178 161 153 148 159 155 137 104 271 259 267
282 236 272 283 275 276 267 263 229 142 151 181 177 182 205 238 267 286 302 303 310 306 248 252 272 266 242 226 226 214 214 211 202 211 201 200 135 112 146 140 151 150 137 131 117 183 235 258 247
257 276 247 224 273 263 265 284 315 158 187 173 202 217 230 270 297 293 307 309 305 303 296 239 260 262 248 236 235 232 208 197 216 158 158 156 150 156 160 149 159 141 153 160 159 196 202 231 223
239 228 252 267 270 276 285 267 82 25 9 12 217 244 277 299 314 313 312 312 306 301 288 285 240 247 250 243 247 266 326 149 156 163 182 197 173 165 172 171 178 185 184 174 176 185 199 211 208
269 268 255 236 247 246 260 266 300 281 269 299 295 300 308 309 308 305 310 311 304 308 294 289 265 253 240 249 257 226 155 163 202 210 167 168 172 173 173 168 181 179 182 176 184 188 190 205 193